Location: Lussas
(44.6119°N, 4.4726°E)
Time: 14:41:55
(UTC+00:00)

USA 234 - Pass Details

Date: 26 November 2020
Orbit: 1098 x 1110 km, 123.0° (Epoch: 22 January)

Event Time Altitude Azimuth Distance (km) Brightness Sun altitude
Rises 06:15:01 0° 50° (NE) 3,940 6.6 -6.9°
Reaches altitude 10° 06:17:31 10° 48° (NE) 2,980 5.9 -6.5°
Maximum altitude 06:24:03 70° 327° (NNW) 1,176 3.3 -5.5°
Drops below altitude 10° 06:30:34 10° 245° (WSW) 2,967 5.2 -4.4°
Sets 06:33:03 0° 243° (WSW) 3,922 5.8 -4.0°
